Wind_Speed
82 83 85 86 87 87 88 89 90 89 87 85 86 86 85 84 84 83 82 81 80 80 78 77 76 75 75 75 74 73 72 71 69 68 67 66 65 65
85 85 85 85 86 87 87 88 88 89 87 82 83 84 83 81 81 80 79 78 77 77 76 75 75 75 75 74 73 72 72 71 70 69 69 68 67 66
84 84 83 83 83 83 84 84 84 83 83 77 78 78 78 77 76 75 75 74 73 73 72 72 72 73 72 73 72 71 71 71 70 70 69 68 67 67
81 80 79 79 78 77 76 75 75 75 75 72 71 73 73 73 72 72 72 71 71 70 69 69 69 69 69 69 69 70 70 69 69 68 68 68 67 67
77 75 73 72 70 69 68 68 67 68 68 67 64 66 67 67 68 68 68 68 68 68 67 67 67 67 67 66 67 67 67 67 67 67 67 67 67 67
71 69 67 65 64 63 62 62 62 62 62 61 58 58 59 60 61 61 62 64 65 66 65 64 64 64 65 65 65 65 65 66 66 66 66 66 67 67
64 62 61 59 58 58 57 57 56 56 55 54 53 52 52 54 55 56 58 59 60 61 62 62 62 62 63 63 64 64 65 65 66 66 66 67 67 68
58 56 55 54 53 53 52 52 52 51 50 49 48 48 47 49 50 52 53 54 55 55 57 58 59 59 60 61 62 63 64 65 65 66 66 67 67 67
54 53 52 51 50 49 47 47 46 46 45 45 45 44 44 45 47 48 49 51 51 53 54 54 56 57 58 59 59 60 61 62 63 64 65 65 65 65
51 50 49 48 47 46 45 43 42 42 43 43 43 42 43 44 45 46 47 47 48 49 51 52 54 55 56 57 58 59 60 60 61 62 63 63 63 64
49 48 47 46 44 43 43 42 41 40 41 41 42 41 42 42 43 44 45 45 46 47 48 50 51 54 55 55 56 57 58 59 60 60 61 61 62 62
46 45 44 43 41 41 41 40 39 39 39 39 40 40 40 41 42 43 44 45 46 46 47 48 50 52 52 53 54 55 56 57 58 59 59 60 61 61
44 42 41 41 40 40 40 39 39 38 38 37 37 38 39 39 40 41 42 44 45 45 45 47 48 50 51 51 52 53 54 55 56 56 57 58 59 60
42 41 40 39 39 39 38 38 37 37 37 36 36 36 37 38 38 39 40 41 42 43 44 46 47 48 48 49 49 50 51 52 53 54 54 55 56 58
40 39 39 38 37 37 36 36 36 36 36 36 35 35 36 37 37 38 39 39 40 41 42 43 44 45 46 46 47 48 48 50 51 52 53 54 54 55
39 38 37 36 36 35 35 35 35 35 34 34 33 33 34 35 35 36 36 37 38 38 39 41 42 43 44 44 45 45 46 47 48 50 52 52 53 53
37 36 35 35 34 33 33 33 32 32 33 32 32 32 32 32 33 33 34 35 36 36 37 38 40 41 41 42 42 42 43 45 46 48 49 50 50 51
35 34 34 34 33 32 31 31 31 31 31 30 30 30 30 31 31 32 32 33 33 33 34 35 36 37 38 38 39 40 41 43 44 45 46 47 47 49
34 33 33 32 32 31 30 30 30 29 28 28 28 29 29 29 30 30 30 30 30 30 31 31 32 33 34 35 36 38 40 42 43 43 45 45 45 47
33 32 32 31 31 30 30 29 28 28 27 27 27 28 28 28 29 29 29 29 29 29 29 29 30 30 31 32 33 34 37 39 40 41 42 43 43 44
32 31 31 31 31 30 29 28 28 28 27 27 27 28 28 28 29 29 29 29 29 28 28 29 29 29 29 30 31 32 35 37 38 40 41 42 42 43
31 31 31 31 31 30 29 28 28 27 28 28 28 28 28 29 29 29 29 29 29 29 29 29 30 30 30 30 31 32 34 36 37 39 40 41 41 40
31 31 31 31 30 30 29 29 28 29 29 29 29 29 29 29 29 30 30 30 30 30 30 30 30 31 31 32 32 33 34 35 37 38 38 39 39 38
Wind_Direction
290 289 288 286 285 283 282 280 279 278 276 275 273 272 270 269 268 266 266 265 264 264 263 262 262 262 261 261 261 262 262 262 261 261 261 261 260 260
291 290 288 287 285 283 282 280 279 278 276 275 273 272 270 268 267 266 266 264 264 263 262 262 261 260 260 260 260 260 260 260 261 260 260 260 259 259
293 291 290 288 286 285 283 281 280 279 278 276 273 272 270 268 267 266 265 265 263 262 262 261 260 260 260 259 259 259 259 259 260 260 259 259 259 258
294 293 291 290 288 286 285 283 281 280 279 276 273 271 269 268 266 265 264 264 262 261 261 260 260 259 258 258 258 258 258 258 258 258 258 257 257 257
295 294 292 291 289 288 286 284 283 281 279 278 274 271 269 268 266 265 264 263 262 261 260 259 259 258 257 257 257 257 257 257 257 257 257 257 257 257
297 295 294 292 291 289 288 287 284 283 281 279 276 272 269 267 266 265 263 263 262 261 260 259 258 258 257 256 257 257 257 256 256 256 256 256 256 256
297 296 295 293 292 291 290 288 286 284 282 280 277 274 271 268 266 265 263 262 262 262 261 259 258 258 257 256 255 256 256 255 255 255 256 256 257 257
298 296 295 294 293 291 290 288 286 285 283 280 278 275 272 270 267 266 264 263 262 261 260 259 258 257 257 256 256 256 255 255 255 255 255 256 256 256
299 297 296 295 293 292 290 289 287 286 283 281 279 276 273 270 268 267 265 264 263 262 260 260 259 258 258 257 256 256 256 256 256 255 255 255 255 255
299 298 297 295 293 292 291 289 287 285 283 281 280 277 274 272 270 269 267 265 264 263 262 261 260 259 258 257 257 256 256 256 255 255 255 254 254 254
299 298 297 295 293 292 291 290 288 286 283 282 280 278 276 274 272 270 269 268 266 265 264 263 261 260 259 258 257 257 256 255 255 255 255 254 254 254
300 299 297 295 294 293 292 290 289 287 285 283 281 279 278 276 273 272 270 269 268 266 265 264 263 261 260 259 258 257 256 255 255 254 254 254 254 254
300 299 298 296 295 294 292 291 290 289 287 285 282 280 279 278 275 274 272 271 270 269 267 265 263 262 261 260 258 258 257 255 255 254 254 254 254 254
301 300 298 296 295 294 293 291 290 290 289 287 285 283 281 280 277 276 274 273 271 270 267 266 264 263 262 261 259 258 257 256 255 255 254 254 254 254
303 302 300 299 297 296 294 293 292 291 290 289 286 284 283 281 279 278 276 275 273 271 270 267 265 264 263 261 260 259 257 256 255 254 254 254 254 254
303 302 301 300 299 297 295 294 293 292 291 290 288 286 284 283 282 280 278 277 275 273 271 269 267 265 263 262 261 259 257 256 255 255 255 254 254 254
303 302 302 302 301 299 298 296 295 294 292 290 289 288 287 285 284 282 280 279 277 275 273 271 268 266 264 263 261 260 258 257 256 255 255 254 254 255
304 304 304 304 303 301 300 299 298 296 294 292 291 290 289 287 286 284 283 282 280 278 276 273 270 267 265 264 263 261 259 258 257 256 256 256 255 255
306 306 306 306 304 303 302 301 299 297 295 294 293 292 291 289 288 286 285 284 282 281 279 275 272 270 268 266 263 262 261 260 259 258 258 257 256 256
306 307 308 307 306 304 303 302 300 298 297 296 295 294 293 291 290 288 287 285 284 283 280 277 275 273 271 267 265 264 263 262 261 259 259 259 258 258
305 306 308 308 307 306 304 303 301 300 298 297 296 295 294 293 292 290 288 286 284 282 281 277 275 274 273 271 269 266 265 263 262 261 261 260 260 259
304 305 306 307 307 306 304 303 302 301 299 298 297 296 295 295 294 292 290 287 284 281 280 277 275 274 274 273 271 269 267 265 264 263 264 264 263 261
304 305 306 306 306 305 304 303 302 301 301 300 298 296 295 295 294 293 291 288 285 282 280 278 276 275 275 274 273 272 269 268 267 266 266 266 264 262
Height
5611 5602 5595 5588 5581 5574 5568 5562 5558 5558 5562 5563 5556 5553 5551 5549 5548 5546 5547 5549 5550 5552 5554 5556 5559 5561 5563 5566 5568 5571 5573 5576 5578 5581 5583 5586 5588 5590
5585 5577 5569 5561 5554 5547 5541 5535 5529 5526 5529 5538 5529 5524 5523 5523 5522 5521 5521 5523 5525 5528 5531 5533 5536 5538 5541 5544 5547 5549 5552 5555 5558 5561 5564 5566 5569 5572
5559 5551 5543 5534 5527 5521 5514 5508 5504 5499 5498 5508 5503 5498 5496 5498 5498 5497 5497 5499 5502 5505 5507 5510 5513 5516 5519 5522 5525 5528 5531 5534 5537 5541 5544 5547 5550 5554
5535 5526 5518 5509 5502 5496 5489 5484 5479 5475 5472 5478 5480 5474 5473 5473 5474 5475 5475 5476 5479 5482 5485 5487 5491 5494 5497 5500 5504 5507 5510 5514 5517 5521 5525 5528 5531 5534
5511 5503 5495 5486 5480 5473 5467 5463 5458 5454 5451 5451 5455 5452 5451 5451 5451 5453 5454 5455 5457 5460 5462 5466 5469 5473 5476 5480 5483 5487 5490 5494 5498 5501 5504 5508 5512 5515
5489 5481 5474 5466 5460 5454 5448 5444 5439 5435 5432 5431 5432 5432 5431 5430 5430 5432 5434 5435 5437 5439 5442 5445 5449 5452 5456 5460 5464 5467 5470 5473 5477 5481 5484 5488 5492 5496
5470 5462 5455 5448 5442 5436 5431 5426 5422 5418 5415 5413 5413 5413 5413 5412 5413 5413 5414 5416 5418 5420 5423 5427 5430 5433 5436 5440 5443 5446 5450 5453 5457 5461 5465 5468 5472 5476
5453 5446 5439 5433 5427 5421 5415 5411 5406 5403 5400 5398 5397 5397 5397 5396 5396 5396 5397 5399 5402 5404 5404 5408 5410 5414 5418 5421 5424 5427 5430 5434 5437 5441 5445 5448 5452 5456
5437 5430 5424 5418 5412 5407 5402 5397 5393 5389 5386 5384 5383 5383 5382 5382 5381 5381 5382 5383 5385 5386 5387 5391 5393 5396 5399 5402 5405 5408 5411 5414 5417 5421 5424 5428 5432 5436
5421 5415 5409 5404 5398 5393 5389 5385 5381 5377 5374 5371 5370 5369 5368 5367 5366 5366 5366 5367 5369 5370 5371 5374 5376 5378 5380 5383 5386 5389 5392 5395 5398 5401 5405 5408 5412 5416
5408 5402 5396 5390 5385 5380 5376 5372 5369 5366 5362 5359 5357 5356 5354 5353 5352 5352 5352 5352 5354 5355 5356 5357 5359 5360 5362 5365 5368 5370 5373 5376 5379 5383 5386 5389 5393 5396
5395 5389 5383 5377 5373 5368 5364 5360 5357 5354 5350 5347 5345 5343 5341 5340 5339 5338 5337 5337 5338 5340 5341 5341 5341 5342 5345 5348 5350 5352 5354 5357 5360 5364 5367 5370 5373 5376
5382 5377 5371 5366 5361 5356 5352 5348 5344 5341 5338 5335 5333 5331 5329 5327 5326 5324 5324 5323 5323 5324 5325 5324 5325 5326 5328 5331 5332 5334 5336 5339 5342 5345 5349 5352 5355 5358
5369 5364 5359 5354 5349 5345 5340 5336 5332 5329 5326 5323 5321 5318 5316 5315 5313 5311 5310 5309 5309 5309 5309 5309 5309 5310 5311 5313 5316 5318 5319 5321 5324 5328 5331 5334 5336 5340
5357 5352 5347 5342 5338 5333 5329 5325 5321 5317 5314 5311 5309 5307 5304 5302 5300 5299 5297 5296 5295 5294 5294 5293 5293 5294 5295 5297 5299 5301 5303 5305 5307 5310 5313 5316 5319 5322
5347 5342 5337 5331 5327 5322 5318 5314 5310 5306 5303 5300 5297 5295 5293 5290 5288 5286 5284 5283 5282 5281 5280 5279 5278 5279 5280 5281 5283 5285 5287 5289 5291 5293 5296 5299 5302 5305
5336 5332 5327 5322 5316 5312 5307 5303 5299 5296 5292 5289 5286 5284 5282 5279 5277 5275 5273 5271 5269 5268 5266 5265 5264 5264 5265 5267 5268 5270 5272 5274 5275 5277 5279 5283 5286 5289
5326 5321 5316 5311 5306 5302 5297 5293 5289 5285 5282 5279 5276 5273 5271 5268 5266 5264 5261 5259 5257 5255 5254 5253 5252 5252 5253 5254 5255 5256 5257 5259 5260 5262 5264 5267 5270 5272
5316 5311 5306 5302 5297 5292 5287 5283 5279 5276 5272 5269 5267 5264 5261 5258 5256 5253 5251 5249 5247 5245 5243 5242 5241 5240 5241 5242 5243 5243 5243 5244 5245 5247 5249 5251 5254 5256
5307 5302 5297 5292 5288 5283 5278 5274 5270 5267 5264 5261 5258 5255 5252 5249 5246 5244 5241 5239 5237 5235 5233 5232 5231 5230 5230 5230 5230 5231 5230 5230 5231 5233 5234 5236 5238 5240
5298 5293 5288 5284 5279 5274 5270 5266 5262 5258 5255 5252 5249 5246 5243 5240 5237 5234 5232 5229 5227 5226 5224 5222 5221 5220 5219 5219 5219 5219 5218 5218 5218 5219 5220 5221 5223 5225
5289 5284 5280 5275 5270 5266 5261 5257 5254 5250 5247 5243 5240 5237 5234 5231 5228 5225 5222 5220 5218 5216 5214 5213 5211 5210 5209 5208 5208 5207 5206 5205 5205 5205 5206 5207 5207 5209
5280 5275 5271 5266 5262 5257 5253 5249 5245 5242 5238 5235 5231 5228 5225 5221 5218 5216 5213 5210 5208 5206 5204 5202 5200 5199 5198 5197 5196 5195 5194 5193 5192 5192 5193 5192 5192 5194